TITAN 3C TRANSTAGE R/B, 7324

Orbit data source: Space-Track

TITAN 3C TRANSTAGE R/B, 7324 is space debris in GEO originally from a launch on Thu, 30 May 1974 UTC launched from the Air Force Eastern Test Range (AFETR). Debris objects in space refer to the collection of defunct objects orbiting the Earth. Examples of debris include non-operational satellites, rocket bodies, and fragments generated from explosions, collisions, or faulty payload assembly.

Not visible in the next 10 days
Identifier
7324, 1974-039C
Orbit
GEO
Country
Flag of USUS
Related business
Manufacturer
Martin Marietta
Mission
Spacecraft
Bus & Motor
TRANSTAGE, Unknown motor
Mass
~1,950 kg wet, ~1,950 kg dry
Launch date (UTC)
1974-05-30 (52 years ago)
Launch vehicle
Unknown
Launch site
Air Force Eastern Test Range (AFETR)
Object type
Payload
Rocket body
Debris
Shape & HBR
Unknown
Radar Cross Section
Large (>1 m²)

Expand to show TLE details & history
Last TLE update: 5 hours ago

TLE from 5 hours ago
0 TITAN 3C TRANSTAGE R/B
1  7324U 74039C   26071.77863052 -.00000189  00000-0  00000+0 0  9991
2  7324   2.9904 262.1612 0033833  80.8467  71.7698  1.00715742118651
Epoch: 2026-03-12T18:41Z
TLE epoch observation values (Epoch: 2026-03-12T18:41:13.676Z)
Latitude
1.33822°
Longitude
-35.52672°
Altitude
35,617.71 km
Speed
3.083 km/s
True Right ascension
03h 40m 48s
True Declination
1° 20' 13"
Sunlit
Object was in daylight at epoch
Visualization orbit readout
Latitude
Unknown
Longitude
Unknown
Altitude
Unknown
Speed
Unknown
Apparent Right ascension
Unknown
Apparent Declination
Unknown
Sunlit
N/A
Visualization observer readout
Local Sidereal Time
04:19:35
Azimuth
Unknown
Elevation
Unknown
Doppler factor
Unknown
Orbital elements
Apogee altitude
35,805.904 km
Perigee altitude
35,521.424 km
Semi-major axis
42,041.801 km
Eccentricity
0.00338
Inclination
2.9904°
RAAN
262.1612°
Arg. of periapsis
80.8467°
True anomaly
72.13852°
Mean anomaly
71.7698°
Eccentric anomaly
71.95411°
Mean motion
0.25178 °/min
Orbital period
1,429.82 mins
BSTAR
0
Loading maneuver chart data...
Computing Atmospheric mass density...
Loading historical data...
Loading historical data...
Loading historical data...
Loading historical data...
Loading historical data...
Loading historical data...
Loading historical data...
Other satellites on launch #39 in the year 1974 (1974-05-30 UTC)

Documentation

Showing up to 5 results
|